Location: Oberwangen
(47.4286°N, 8.9679°E)
Time: 14:51:05
(UTC+00:00)

Cosmos 1607 - Pass Details

Date: 22 October 2021
Orbit: 918 x 984 km, 65.0° (Epoch: 03 December)

Event Time Altitude Azimuth Distance (km) Brightness Sun altitude
Rises 17:40:41 0° 316° (NW) 3,652 7.7 -13.7°
Reaches altitude 10° 17:43:35 10° 306° (NW) 2,691 7.1 -14.2°
Maximum altitude 17:48:50 29° 249° (WSW) 1,662 6.0 -15.1°
Drops below altitude 10° 17:54:00 10° 191° (S) 2,637 6.4 -16.0°
Sets 17:56:49 0° 180° (S) 3,567 7.0 -16.5°
